Regional Weather Roundup
Issued by NWS

Home | Current Version | Previous Version | Graphics & Text | Print | Product List | Glossary On
Versions: 1 2 3 4 5 6 7 8 9 10 11 12 13 14 15 16 17 18 19 20 21 22 23 24 25 26 27 28 29 30 31 32 33 34 35 36 37 38 39 40 41 42 43 44 45 46 47 48 49 50
000
ASUS45 KABQ 271401
RWRNM
NEW MEXICO REGIONAL WEATHER ROUNDUP
NATIONAL WEATHER SERVICE ALBUQUERQUE NM
800 AM MDT SAT MAY 27 2017

NOTE: "FAIR" MEANS FEW OR NO CLOUDS BELOW 12,000 FEET AGL WITH NO
       SIGNIFICANT WEATHER OR OBSTRUCTIONS TO VISION.

      THIS PRODUCT IS RELEASED AS TWO VERSIONS.  ONE VERSION NEAR
      THE TOP OF THE HOUR CONTAINING PRELIMINARY DATA FROM ALBUQUERQUE
      AND OTHER STATIONS.  A FINAL VERSION WITH ADDITIONAL DATA IS
      ISSUED ABOUT 10 MINUTES AFTER THE HOUR.

NMZ501-503-504-510>518-271500-
NORTHWEST PLATEAU/NORTHCENTRAL MOUNTAINS

CITY           SKY/WX    TMP DP  RH WIND       PRES   REMARKS
FARMINGTON     FAIR      54  25  32 S5        30.06R
LOS ALAMOS     FAIR      59  16  19 SW7       30.15S
SANTA FE       FAIR      60  18  19 SW12      30.10S
TAOS           FAIR      55  18  22 CALM      30.15S
ANGEL FIRE     FAIR      51  19  28 SW8       30.18S

$$
NMZ402-403-502-505>509-271500-
WESTCENTRAL MOUNTAINS/SOUTHWEST MOUNTAINS

CITY           SKY/WX    TMP DP  RH WIND       PRES   REMARKS
GALLUP         FAIR      53  19  26 CALM      30.17R
GRANTS         FAIR      54  17  23 CALM      30.18S
SILVER CITY    FAIR      65  26  23 NW8       30.14R

$$
NMZ407-409-411-412-271500-
SOUTHERN DESERTS

CITY           SKY/WX    TMP DP  RH WIND       PRES   REMARKS
DEMING         FAIR      64  26  23 NW7       30.09R
LAS CRUCES     FAIR      72  29  20 W12       30.09R
HOLLOMAN AFB   FAIR      74  31  20 S8        30.09R
T OR C         FAIR      69  21  16 NW8       30.08R

$$
NMZ519>523-271500-
CENTRAL VALLEYS/CENTRAL HIGHLANDS

CITY           SKY/WX    TMP DP  RH WIND       PRES   REMARKS
ALBUQUERQUE    FAIR      61  15  16 S7        30.10R
DOUBLE EAGLE   MOSUNNY   61  19  20 SW8       30.12R
MORIARTY ARPT  FAIR      64  19  17 W10       30.13R
CLINES CORNERS FAIR      58  16  19 W17       30.13R
BELEN          FAIR      64  15  15 W7        30.11R
SOCORRO        FAIR      66  20  16 NW7       30.08R

$$
NMZ524>526-539-540-271500-
SOUTHCENTRAL MOUNTAINS

CITY           SKY/WX    TMP DP  RH WIND       PRES   REMARKS
RUIDOSO        NOT AVBL

$$
NMZ527>531-271500-
NORTHEAST HIGHLANDS/NORTHEAST PLAINS

CITY           SKY/WX    TMP DP  RH WIND       PRES   REMARKS
LAS VEGAS      FAIR      61  17  18 SE6       30.09R
RATON          FAIR      57  41  55 N12       30.04R
CLAYTON        FAIR      59  47  64 N25G33    29.99R

$$
NMZ532>537-271500-
EASTCENTRAL PLAINS

CITY           SKY/WX    TMP DP  RH WIND       PRES   REMARKS
SANTA ROSA     FAIR      64  20  18 W10       30.01R
TUCUMCARI      FAIR      70  27  20 W12       29.92S
CANNON AFB     FAIR      70  23  17 W8        29.99R
CLOVIS AIRPORT FAIR      72  25  17 W12       29.97S

$$
NMZ028-029-538-271500-
SOUTHEAST PLAINS

CITY           SKY/WX    TMP DP  RH WIND       PRES   REMARKS
ROSWELL        FAIR      69  29  22 CALM      29.97R
ARTESIA        FAIR      81  27  13 W12       29.98R
CARLSBAD       FAIR      80  29  15 W17       29.97R
HOBBS          SUNNY     81  25  12 SW16      29.98R


$$



USA.gov is the U.S. government's official web portal to all federal, state and local government web resources and services.